Regional Weather Roundup
Issued by NWS

Home | Current Version | Previous Version | Graphics & Text | Print | Product List | Glossary On
Versions: 1 2 3 4 5 6 7 8 9 10 11 12 13 14 15 16 17 18 19 20 21 22 23 24 25 26 27 28 29 30 31 32 33 34 35 36 37 38 39 40 41 42 43 44 45 46 47 48 49 50
725
ASUS45 KBOU 222110
RWRCO

WEATHER ROUNDUP FOR COLORADO
NATIONAL WEATHER SERVICE DENVER/BOULDER CO
300 PM MDT TUE MAY 22 2018

NOTE: "FAIR" INDICATES FEW OR NO CLOUDS BELOW 12000 FEET WITH NO
SIGNIFICANT WEATHER AND/OR OBSTRUCTIONS TO VISIBILITY.

COZ001>005-013-030-031-222200-
...NORTHWEST COLORADO...

CITY           SKY/WX    TMP DP  RH WIND       PRES   REMARKS
CRAIG          LGT RAIN  58  42  55 SW26G41   29.99R
HAYDEN         FAIR      68  34  28 E9        29.97R
MEEKER         PTSUNNY   59  45  59 W10       30.03R
RANGELY        MOCLDY    61  50  67 SW7       29.99R
RABBIT EARS PA CLOUDY    50  34  53 W6        30.21S
STEAMBOAT SPGS PTSUNNY   66  39  37 W10       29.97R
WALDEN         FAIR      70  25  18 S5        30.01F
$$

COZ006>008-011-222200-
...WEST CENTRAL VALLEYS...

CITY           SKY/WX    TMP DP  RH WIND       PRES   REMARKS
GRAND JUNCTION LGT RAIN  60  50  69 NW10      29.96R
MONTROSE       CLOUDY    68  33  27 S24G35    30.00R THUNDER
EAGLE          FAIR      70  33  25 W14G20    29.96F
RIFLE          PTSUNNY   69  37  30 W28G39    29.95R
DELTA          NOT AVBL
NUCLA          NOT AVBL
$$

COZ017>023-064>068-222200-
...SOUTHWEST COLORADO...

CITY           SKY/WX    TMP DP  RH WIND       PRES   REMARKS
DURANGO        CLOUDY    68  30  24 SW17      30.02S
CORTEZ         FAIR      72  29  20 SW18G29   29.97R
PAGOSA SPRINGS NOT AVBL
TELLURIDE      CLOUDY    47  38  71 E7G18     30.21F
WOLF CREEK PAS FAIR      46  21  36 S25G38    30.33F
$$

COZ009-010-012-014-032>034-037-058>063-222200-
...CENTRAL COLORADO...

CITY           SKY/WX    TMP DP  RH WIND       PRES   REMARKS
ASPEN          PTSUNNY   67  32  27 SE21G28   30.02S
BUENA VISTA    NOT AVBL
COPPER MTN     PTSUNNY   50  32  50 S7G24     30.29F
BERTHOUD PASS  FAIR      43  32  65 MISG      30.31F
COTTONWOOD PAS TSTM      54  41  62 W15G22    30.17S
GUNNISON       PTSUNNY   63  32  31 S24G32    30.04F
GRANBY         CLOUDY    62  34  35 E7        30.04R
KREMMLING      FAIR      72  30  21 SE15G31   30.01R
LEADVILLE      FAIR      55  32  41 CALM      30.15F
MONARCH PASS   PTSUNNY   50  28  43 MISG      30.40F
SALIDA         NOT AVBL
SUNLIGHT       PTSUNNY   50  28  43 SW13G24   30.24F
WILKERSON PASS FAIR      55  21  26 SW16G28   30.29F THUNDER
$$

COZ069>075-222200-
...SAN LUIS VALLEY/SANGRE DE CRISTO MOUNTAINS...

CITY           SKY/WX    TMP DP  RH WIND       PRES   REMARKS
ALAMOSA        FAIR      74  30  19 S18G37    30.05F
DEL NORTE      NOT AVBL
LA VETA PASS   FAIR      61  19  20 S28G39    30.35F
SAGUACHE       NOT AVBL
$$

COZ035-036-038>040-222200-
...NORTHERN COLORADO FRONT RANGE...

CITY           SKY/WX    TMP DP  RH WIND       PRES   REMARKS
DENVER INTL AP PTSUNNY   79  41  25 E5        29.89F
AURORA         PTSUNNY   80  43  26 E10       29.90F
FRONT RANGE AP PTSUNNY   81  41  24 E6        29.91F
ERIE MUNI ARPT FAIR      77  44  29 NE8       29.93F
BOULDER MUN AP FAIR      73  45  35 N3        29.90F
CENTENNIAL     PTSUNNY   77  42  28 SE15G23   29.90F
BROOMFIELD     PTSUNNY   77  45  31 N8        29.92F
FORT COLLINS   FAIR      78  51  38 E6        29.89F
LONGMONT       NOT AVBL
$$

COZ041-046-047-076>085-087-088-222200-
...PIKES PEAK/PALMER DIVIDE AND SOUTHERN FOOTHILLS...

CITY           SKY/WX    TMP DP  RH WIND       PRES   REMARKS
COLO. SPRINGS  FAIR      80  37  21 S18G32    29.95F
A. F. ACADEMY  MOSUNNY   75  37  24 S18G25    29.96F
SCHRIEVER AFB  NOT AVBL
CHEYENNE MTN   FAIR      71  32  23 S20G33    29.94R
ELLICOTT         N/A    N/A N/A N/A SW14G22   29.96F
FALCON         NOT AVBL
FORT CARSON    PTSUNNY   81  36  20 S20G29    29.92F
LIMON          FAIR      78  39  24 S15G25    29.93F
MONUMENT HILL  FAIR      73  36  25 SE18G29   30.01F
CANON CITY     FAIR      86  30  13 S12G30    29.89F
WALSENBURG     FAIR      77  46  33 E13       29.96F
TRINIDAD       FAIR      83  37  19 S28G38    29.92F
$$

COZ042>045-048>051-090-091-222200-
...NORTHEAST COLORADO...

CITY           SKY/WX    TMP DP  RH WIND       PRES   REMARKS
GREELEY ARPT   FAIR      76  54  46 E9G18     29.88F
AKRON          FAIR      77  53  43 SE20G28   29.91F
BURLINGTON     FAIR      80  50  34 S22G32    29.92F
WRAY           NOT AVBL
YUMA           FAIR      77  14   9 SE14G24   29.90F
STERLING       FAIR      79  54  41 SE13G18   29.89F
HOLYOKE        FAIR      81  50  34 S18G29    29.91F
FORT MORGAN    NOT AVBL
$$

COZ086-089-092>099-222200-
...SOUTHEAST COLORADO...

CITY           SKY/WX    TMP DP  RH WIND       PRES   REMARKS
PUEBLO         FAIR      84  42  22 SE21      29.86F
LA JUNTA       FAIR      86  45  23 SE12G17   29.87F
LAMAR          FAIR      86  46  24 S18G30    29.86F
SPRINGFIELD      N/A     80  51  36 S29G40    29.95F
$$




USA.gov is the U.S. government's official web portal to all federal, state and local government web resources and services.